Kerrville, TX

1:04 AM CDT on May 28, 2018 (GMT -0500)
Kerrville Municipal-Schreiner

Weather History for KERV - May, 2013

Change the Weather History Date:

Tuesday, May 28, 2013

  Actual Average (KHDO) Record (KHDO)
Temperature  
Mean Temperature 76 °F -  
Max Temperature 84 °F 89 °F 102 °F (2011)
Min Temperature 68 °F 66 °F 64 °F (1997)
Cooling Degree Days 11    
Growing Degree Days 26 (Base 50)    
Moisture  
Dew Point 68 °F    
Average Humidity 78    
Maximum Humidity 89    
Minimum Humidity 56    
Precipitation  
Precipitation 0.00 in - - ()
Sea Level Pressure  
Sea Level Pressure 29.86 in    
Wind  
Wind Speed 13 mph (SSE)    
Max Wind Speed 20 mph    
Max Gust Speed 26 mph    
Visibility 10 miles    
Events      
Averages and records for this station are not official NWS values.
T = Trace of Precipitation, MM = Missing Value Source: NWS Daily Summary

Daily Weather History Graph

Daily Weather History Graph

Search for Another Location

Airport or City:

Astronomy

May. 28, 2013 Rise Set
Actual Time 6:36 AM CDT 8:30 PM CDT
Civil Twilight 6:09 AM CDT 8:57 PM CDT
Nautical Twilight 5:37 AM CDT 9:30 PM CDT
Astronomical Twilight 5:02 AM CDT 10:04 PM CDT
Moon No Moon Rise 10:20 AM CDT
Length of Visible Light 14h 47m
Length of Day
13h 54m
Waning Gibbous, 82% of the Moon is Illuminated
May 28
Waning Gibbous
May 31
Last Quarter
Jun 8
New
Jun 16
First Quarter
Jun 23
Full

Hourly Weather History & Observations

Time (CDT) Temp. Heat Index Dew Point Humidity Pressure Visibility Wind Dir Wind Speed Gust Speed Precip Events Conditions
12:15 AM 72.7 °F - 67.6 °F 84% 29.94 in 10.0 mi SSE 9.2 mph - N/A   Mostly Cloudy
12:35 AM 71.6 °F - 66.7 °F 85% 29.93 in 10.0 mi SE 10.4 mph - N/A   Mostly Cloudy
12:55 AM 71.6 °F - 66.9 °F 85% 29.93 in 10.0 mi SSE 9.2 mph - N/A   Overcast
1:15 AM 71.6 °F - 67.1 °F 86% 29.93 in 10.0 mi SSE 12.7 mph 16.1 mph N/A   Overcast
1:35 AM 71.6 °F - 67.3 °F 86% 29.92 in 10.0 mi SSE 11.5 mph - N/A   Overcast
1:55 AM 71.6 °F - 67.6 °F 87% 29.91 in 10.0 mi SSE 10.4 mph 19.6 mph N/A   Overcast
2:15 AM 71.6 °F - 67.5 °F 87% 29.90 in 10.0 mi SSE 12.7 mph 18.4 mph N/A   Overcast
2:35 AM 71.6 °F - 67.5 °F 87% 29.90 in 10.0 mi SE 15.0 mph 20.7 mph N/A   Overcast
2:55 AM 71.6 °F - 67.5 °F 87% 29.90 in 10.0 mi SSE 13.8 mph - N/A   Overcast
3:15 AM 71.6 °F - 67.3 °F 86% 29.90 in 10.0 mi SSE 15.0 mph - N/A   Overcast
3:35 AM 71.6 °F - 67.3 °F 86% 29.89 in 10.0 mi SSE 16.1 mph - N/A   Mostly Cloudy
3:55 AM 71.6 °F - 67.3 °F 86% 29.88 in 10.0 mi SSE 11.5 mph - N/A   Overcast
4:15 AM 71.6 °F - 67.5 °F 87% 29.89 in 10.0 mi SSE 11.5 mph 19.6 mph N/A   Overcast
4:35 AM 71.2 °F - 67.3 °F 87% 29.89 in 10.0 mi SSE 11.5 mph 18.4 mph N/A   Overcast
4:55 AM 70.7 °F - 66.9 °F 88% 29.89 in 10.0 mi SSE 13.8 mph 18.4 mph N/A   Mostly Cloudy
5:15 AM 70.2 °F - 66.2 °F 87% 29.89 in 10.0 mi SSE 12.7 mph - N/A   Mostly Cloudy
5:35 AM 71.4 °F - 67.5 °F 87% 29.89 in 10.0 mi SSE 11.5 mph - N/A   Overcast
5:55 AM 70.7 °F - 66.9 °F 88% 29.89 in 10.0 mi SSE 16.1 mph 20.7 mph N/A   Overcast
6:15 AM 69.3 °F - 65.7 °F 88% 29.89 in 10.0 mi South 13.8 mph - N/A   Mostly Cloudy
6:35 AM 68.9 °F - 65.5 °F 89% 29.88 in 10.0 mi SSE 11.5 mph - N/A   Mostly Cloudy
6:55 AM 68.9 °F - 65.7 °F 89% 29.88 in 10.0 mi SSE 16.1 mph - N/A   Mostly Cloudy
7:15 AM 71.6 °F - 68.0 °F 88% 29.88 in 10.0 mi SSE 12.7 mph 17.3 mph N/A   Overcast
7:35 AM 71.6 °F - 68.0 °F 88% 29.88 in 10.0 mi South 13.8 mph 18.4 mph N/A   Overcast
7:55 AM 71.6 °F - 67.8 °F 88% 29.89 in 10.0 mi SSE 13.8 mph 17.3 mph N/A   Overcast
8:15 AM 71.6 °F - 67.1 °F 86% 29.90 in 10.0 mi SSE 15.0 mph - N/A   Overcast
8:35 AM 71.6 °F - 67.1 °F 86% 29.90 in 10.0 mi SSE 11.5 mph - N/A   Overcast
8:55 AM 71.6 °F - 66.7 °F 85% 29.89 in 10.0 mi South 13.8 mph 17.3 mph N/A   Overcast
9:15 AM 72.5 °F - 67.6 °F 85% 29.88 in 10.0 mi SSE 12.7 mph - N/A   Overcast
9:35 AM 72.7 °F - 67.3 °F 83% 29.89 in 10.0 mi SSE 11.5 mph 21.9 mph N/A   Overcast
9:55 AM 73.9 °F - 67.3 °F 80% 29.90 in 10.0 mi SSE 12.7 mph 21.9 mph N/A   Overcast
10:15 AM 73.9 °F - 67.6 °F 81% 29.90 in 10.0 mi SSE 15.0 mph 23.0 mph N/A   Overcast
10:35 AM 73.9 °F - 67.3 °F 80% 29.90 in 10.0 mi South 12.7 mph - N/A   Overcast
10:55 AM 76.5 °F - 69.4 °F 79% 29.90 in 10.0 mi South 12.7 mph - N/A   Mostly Cloudy
11:15 AM 76.5 °F - 68.0 °F 75% 29.90 in 10.0 mi SSE 17.3 mph - N/A   Scattered Clouds
11:35 AM 76.8 °F - 68.5 °F 75% 29.89 in 10.0 mi SSE 11.5 mph 19.6 mph N/A   Mostly Cloudy
11:55 AM 77.0 °F - 67.8 °F 73% 29.89 in 10.0 mi SSE 13.8 mph 20.7 mph N/A   Mostly Cloudy
12:15 PM 76.5 °F - 68.5 °F 76% 29.89 in 10.0 mi SSE 12.7 mph - N/A   Overcast
12:35 PM 76.5 °F - 68.7 °F 77% 29.89 in 10.0 mi SSE 13.8 mph 19.6 mph N/A   Overcast
12:55 PM 77.7 °F - 69.3 °F 75% 29.89 in 10.0 mi SSE 13.8 mph 19.6 mph N/A   Overcast
1:15 PM 79.0 °F - 69.3 °F 72% 29.88 in 10.0 mi South 12.7 mph - N/A   Overcast
1:35 PM 79.5 °F - 69.3 °F 71% 29.87 in 10.0 mi SSE 15.0 mph 19.6 mph N/A   Mostly Cloudy
1:55 PM 81.3 °F 85.0 °F 70.2 °F 69% 29.86 in 10.0 mi SE 12.7 mph 19.6 mph N/A   Mostly Cloudy
2:15 PM 81.5 °F 84.8 °F 69.1 °F 66% 29.85 in 10.0 mi SSE 15.0 mph 21.9 mph N/A   Mostly Cloudy
2:35 PM 82.8 °F 86.2 °F 69.1 °F 63% 29.84 in 10.0 mi SSE 15.0 mph 19.6 mph N/A   Scattered Clouds
2:55 PM 83.1 °F 86.8 °F 69.3 °F 63% 29.83 in 10.0 mi SSE 13.8 mph 17.3 mph N/A   Scattered Clouds
3:15 PM 82.9 °F 86.0 °F 68.2 °F 61% 29.83 in 10.0 mi SE 19.6 mph - N/A   Mostly Cloudy
3:35 PM 83.1 °F 86.6 °F 68.7 °F 62% 29.83 in 10.0 mi SSE 17.3 mph - N/A   Mostly Cloudy
3:55 PM 83.1 °F 85.9 °F 67.3 °F 59% 29.82 in 10.0 mi SSE 16.1 mph 23.0 mph N/A   Mostly Cloudy
4:15 PM 84.2 °F 86.8 °F 66.9 °F 56% 29.81 in 10.0 mi SE 19.6 mph 24.2 mph N/A   Mostly Cloudy
4:35 PM 83.1 °F 85.7 °F 67.1 °F 58% 29.81 in 10.0 mi SE 19.6 mph 23.0 mph N/A   Mostly Cloudy
4:55 PM 83.3 °F 86.6 °F 68.4 °F 61% 29.80 in 10.0 mi SSE 13.8 mph 18.4 mph N/A   Mostly Cloudy
5:15 PM 84.0 °F 87.3 °F 68.4 °F 59% 29.80 in 10.0 mi SSE 13.8 mph - N/A   Scattered Clouds
5:35 PM 83.7 °F 86.5 °F 67.5 °F 58% 29.80 in 10.0 mi SSE 16.1 mph 19.6 mph N/A   Scattered Clouds
5:55 PM 83.5 °F 86.9 °F 68.5 °F 61% 29.79 in 10.0 mi SE 12.7 mph - N/A   Scattered Clouds
6:15 PM 82.9 °F 85.8 °F 67.6 °F 60% 29.79 in 10.0 mi SE 12.7 mph 19.6 mph N/A   Mostly Cloudy
6:35 PM 81.7 °F 84.7 °F 68.5 °F 64% 29.78 in 10.0 mi SE 13.8 mph - N/A   Mostly Cloudy
6:55 PM 81.7 °F 85.1 °F 69.3 °F 66% 29.78 in 10.0 mi SE 18.4 mph 21.9 mph N/A   Scattered Clouds
7:15 PM 81.5 °F 85.5 °F 70.7 °F 70% 29.78 in 10.0 mi ESE 13.8 mph 19.6 mph N/A   Scattered Clouds
7:35 PM 79.3 °F - 69.4 °F 72% 29.78 in 10.0 mi SE 13.8 mph 18.4 mph N/A   Scattered Clouds
7:55 PM 79.0 °F - 69.8 °F 73% 29.79 in 10.0 mi SE 15.0 mph 24.2 mph N/A   Scattered Clouds
8:15 PM 79.0 °F - 70.3 °F 75% 29.79 in 10.0 mi SE 19.6 mph 26.5 mph N/A   Clear
8:35 PM 77.9 °F - 69.8 °F 76% 29.80 in 10.0 mi SE 17.3 mph - N/A   Scattered Clouds
8:55 PM 76.5 °F - 69.1 °F 78% 29.81 in 10.0 mi SE 12.7 mph - N/A   Scattered Clouds
9:15 PM 76.5 °F - 69.8 °F 80% 29.81 in 10.0 mi SE 13.8 mph 19.6 mph N/A   Mostly Cloudy
9:35 PM 76.5 °F - 70.0 °F 80% 29.81 in 10.0 mi SE 12.7 mph 21.9 mph N/A   Mostly Cloudy
9:55 PM 76.5 °F - 70.0 °F 80% 29.82 in 10.0 mi SE 16.1 mph 20.7 mph N/A   Overcast
10:15 PM 76.5 °F - 70.2 °F 81% 29.83 in 10.0 mi SE 17.3 mph 20.7 mph N/A   Overcast
10:35 PM 76.5 °F - 70.2 °F 81% 29.85 in 10.0 mi SE 16.1 mph - N/A   Overcast
10:55 PM 76.5 °F - 70.0 °F 80% 29.87 in 10.0 mi SE 11.5 mph 19.6 mph N/A   Overcast
11:15 PM 76.5 °F - 70.3 °F 81% 29.90 in 10.0 mi SE 6.9 mph - N/A   Overcast
11:35 PM 75.0 °F - 69.4 °F 83% 29.92 in 10.0 mi ESE 4.6 mph - N/A   Overcast
11:55 PM 73.9 °F - 68.5 °F 83% 29.93 in 10.0 mi SSE 8.1 mph - N/A   Overcast